Home > Weather > Surat > Past weeks

Flag for India Weather for the Past 2 Weeks in Surat, Gujarat, India

Now
84 °F

Clear.


Feels Like: 83 °F
Forecast: 79 / 98 °F
Wind: 6 mph from West

Location: Ahmadabad Airport

Current Time: Apr 29, 2016 at 4:32:03 AM

Latest Report: Apr 29, 2016 at 3:30 AM


Visibility: 2 mi

Pressure: 29.68 "Hg

Humidity: 35%

Dew Point: 54 °F

Location of SuratLocation

Historic Weather in Surat — Graph

°F

Surat Temperature Yesterday

Maximum temperature yesterday: 111 °F (at 3:00 PM)
Minimum temperature yesterday: 79 °F (at 6:00 AM)
Average temperature yesterday: 96 °F

High & Low Weather Summary for the Past Weeks

 TemperatureHumidityPressure
High111 °F (Apr 28, 3:00 PM)74% (Apr 23, 6:30 AM)29.89 "Hg (Apr 23, 6:30 AM)
Low77 °F (Apr 18, 6:00 AM)11% (Apr 21, 6:00 PM)29.59 "Hg (Apr 23, 5:00 PM)
Average91 °F37%29.74 "Hg
* Reported Apr 14 2:30 AM — Apr 29 2:30 AM, Surat, Weather by CustomWeather, © 2016

Note: Actual official high and low records may vary slightly from our data, if they occured in-between our weather recording intervals... More about our weather records

Advertising

Surat Weather History for the Previous 24 Hours

Scroll right to see more
 ConditionsComfort  
Time TempWeatherWind HumidityBarometerVisibility
2:30 AM
Fri, Apr 29
86 °FClear.7 mph35%29.68 "Hg2 mi
2:00 AM90 °FClear.7 mph29%29.68 "Hg2 mi
1:30 AM90 °FClear.6 mph31%29.68 "Hg2 mi
1:00 AM90 °FClear.6 mph29%29.71 "Hg2 mi
12:30 AM91 °FClear.9 mph28%29.71 "Hg2 mi
12:00 AM91 °FClear.6 mph26%29.71 "Hg2 mi
11:30 PM
Thu, Apr 28
91 °FClear.5 mph24%29.71 "Hg2 mi
11:00 PM95 °FClear.8 mph22%29.71 "Hg2 mi
10:30 PM95 °FClear.6 mph22%29.71 "Hg2 mi
10:00 PM97 °FClear.8 mph22%29.71 "Hg2 mi
9:30 PM99 °FClear.7 mph22%29.68 "Hg2 mi
9:00 PM99 °FClear.6 mph21%29.68 "Hg2 mi
8:30 PM100 °FClear.6 mph20%29.68 "Hg2 mi
8:00 PM99 °FClear.3 mph17%29.65 "Hg2 mi
7:30 PM102 °FClear.3 mph15%29.65 "Hg2 mi
7:00 PM106 °FClear.3 mph13%29.65 "Hg3 mi
6:30 PM108 °FClear.2 mph14%29.62 "Hg4 mi
6:00 PM109 °FClear.3 mph12%29.62 "Hg4 mi
5:30 PM111 °FClear.2 mph11%29.62 "Hg4 mi
5:00 PM111 °FClear.5 mph11%29.62 "Hg4 mi
4:30 PM111 °FPassing clouds.2 mph12%29.62 "Hg4 mi
4:00 PM111 °FPassing clouds.7 mph14%29.62 "Hg4 mi
3:30 PM109 °FPassing clouds.6 mph14%29.65 "Hg4 mi
3:00 PM111 °FPassing clouds.8 mph14%29.65 "Hg4 mi
2:30 PM109 °FClear.3 mph15%29.65 "Hg4 mi
2:00 PM109 °FClear.6 mph17%29.68 "Hg4 mi
1:00 PM106 °FClear.6 mph22%29.71 "Hg4 mi
11:00 AM100 °FClear.7 mph29%29.77 "Hg3 mi
10:30 AM97 °FClear.8 mph34%29.77 "Hg3 mi
9:30 AM91 °FClear.6 mph44%29.77 "Hg2 mi
9:00 AM90 °FClear.7 mph49%29.77 "Hg2 mi
8:30 AM86 °FClear.9 mph55%29.77 "Hg2 mi
7:30 AM82 °FClear.5 mph62%29.77 "Hg2 mi
7:00 AM81 °FClear.3 mph62%29.77 "Hg2 mi
6:30 AM79 °FClear.3 mph61%29.77 "Hg2 mi
6:00 AM79 °FClear.No wind58%29.74 "Hg2 mi
5:30 AM81 °FClear.3 mph58%29.74 "Hg2 mi
5:00 AM81 °FClear.3 mph54%29.74 "Hg2 mi
4:30 AM81 °FClear.3 mph54%29.71 "Hg2 mi
4:00 AM82 °FClear.5 mph51%29.71 "Hg2 mi
Weather by CustomWeather, © 2016

See weather overviewHow to use our weather pages